sat.trackr.live / text

‹ back to catalog

STARLINK-31056

NORAD 58550 · 2023-192V

PAYLOAD ACTIVE UNKNOWN

§ Identity

Operator
Country
US
Launch date
2023-12-08
Launch site
AFWTR
Launch vehicle
Mass (kg)
RCS (m²)

Purposes: comms

External: N2YO · Heavens-Above · Gunter

§ Orbital elements

Epoch: 2026-09-20T07:26:55.451328Z

Period
93.85 min
Inclination
53.1592°
Eccentricity
0.0001501
Mean motion
15.34392123 rev/d
Perigee alt
461.7 km
Apogee alt
463.8 km
Semi-major
6,840.9 km
B*
1.3270e-5
RAAN
236.5574°
Arg perigee
85.2636°
Mean anomaly
274.8538°
Rev number
15,581

§ Raw data

STARLINK-310561 58550U 23192V   26263.31036402  .00000072  00000+0  13270-4 0  99932 58550  53.1592 236.5574 0001501  85.2636 274.8538 15.34392123155819

JSON: /api/v1/satellites/58550 · /tle

For live sub-satellite position, see the globe view (requires WebGL).

§ Visibility from observer

Set your observer location to see the next 7 days of passes ≥ 10°. The values pass through the URL so the page stays shareable.

No JS? Fill the form by hand. The geolocation button needs JavaScript.